STARLINK-3322 (50838 NORAD) Tracking and Keplerian Element Data
This shows tracking and keplerian element data for the satellite.
Feedback or suggestion? Click here.
Element | Value |
Catalog | 50838 |
Name | STARLINK-3322 |
Epoch Orbit | 2175 |
Epoch Day | 140.58334491 |
Epoch Year | 2022 |
RAAN | 295.0585 |
Inclination | 53.2168 |
Eccentricity | 0.0002068 |
Argument of Perigee | 31.5557 |
Mean Anonmoly | 139.928 |
Mean Motion | 15.08876232 |
Decay Rate | -0.00059394 |
L1 | 1 50838U 22001AM 22140.58334491 -.00059394 00000+0 -37409-2 0 9991 |
L2 | 2 50838 53.2168 295.0585 0002068 31.5557 139.9280 15.08876232 21756 |
Live tracking and technical data element details for STARLINK-3322 (NORAD 50838). STARLINK-3322 can be tracked NOW for your location showing map with azimuth and elevation plus other details from your city location.
Track the satellite on the map from your city or location and see movement details for azimuth, elevation, latitude, longitude, range, height, and movement on the map or in text.
IsCatalogInMostPopularTable: catalog: 50838, numindb: 22
Update: records affected: 1
GetName: 50838 STARLINK-3322
Hit Count: updated at: Sun, 22 May 2022 04:58:56 GMT